EW6030 Weather Reports


Display with metric or nautical units.
time (UTC)temp
F
wind
direction
speed
MPH
gust
MPH
rain 1hr
in
rain 24hr
in
rain mn
in
humidity
%
barometer
mb
20260905160034 73 173 0.0 0.0 0.00 0.00 0.00 74 1012.8
20260905154534 73 173 0.0 0.0 0.00 0.00 0.00 74 1012.8
20260905153029 73 173 0.0 0.0 0.00 0.00 0.00 74 1012.8
20260905151528 73 173 0.0 0.0 0.00 0.00 0.00 74 1012.7
20260905150027 73 173 0.0 0.0 0.00 0.00 0.00 74 1012.5
20260905144525 73 172 0.0 0.0 0.00 0.00 0.00 74 1012.2
20260905143029 73 166 0.0 0.0 0.00 0.00 0.00 73 1012.1
20260905141527 72 181 0.0 0.0 0.00 0.00 0.00 72 1011.8
20260905140021 72 182 0.0 0.0 0.00 0.00 0.00 72 1011.8
20260905134519 72 187 1.0 0.0 0.00 0.00 0.00 71 1011.4
20260905133019 72 176 0.0 0.0 0.00 0.00 0.00 71 1011.3
20260905131521 72 177 0.0 0.0 0.00 0.00 0.00 71 1011.4
20260905130016 72 177 0.0 0.0 0.00 0.00 0.00 71 1011.3
20260905124526 71 177 1.0 0.0 0.00 0.00 0.00 71 1011.3
20260905123016 71 177 1.0 0.0 0.00 0.00 0.00 71 1011.3
20260905121513 71 177 1.0 0.0 0.00 0.00 0.00 71 1011.1
20260905120011 71 177 0.0 0.0 0.00 0.00 0.00 71 1010.9
20260905114510 71 176 1.0 0.0 0.00 0.00 0.00 71 1010.7
20260905113007 71 177 1.0 0.0 0.00 0.00 0.00 71 1010.2
20260905111507 71 166 1.0 0.0 0.00 0.00 0.00 71 1010.0
20260905110005 71 103 0.0 0.0 0.00 0.00 0.00 71 1009.6
20260905104504 71 98 0.0 0.0 0.00 0.00 0.00 71 1009.6
20260905103003 71 87 0.0 0.0 0.00 0.00 0.00 71 1009.4
20260905101502 71 87 0.0 0.0 0.00 0.00 0.00 71 1009.6
20260905100002 71 87 0.0 0.0 0.00 0.00 0.00 71 1009.6
20260905094601 72 87 0.0 0.0 0.00 0.00 0.00 71 1009.3
20260905093123 72 87 0.0 0.0 0.00 0.00 0.00 71 1009.3
20260905091606 72 87 0.0 0.0 0.00 0.00 0.00 71 1009.3
20260905090058 72 87 0.0 0.0 0.00 0.00 0.00 71 1009.4
20260905084557 73 87 0.0 0.0 0.00 0.00 0.00 71 1009.3
20260905083054 73 87 0.0 0.0 0.00 0.00 0.00 71 1009.5
20260905081554 73 87 0.0 0.0 0.00 0.00 0.00 71 1009.6
20260905074551 74 87 0.0 0.0 0.00 0.00 0.00 71 1009.4
20260905073050 74 87 0.0 0.0 0.00 0.00 0.00 71 1009.6
20260905071549 74 87 0.0 0.0 0.00 0.00 0.00 71 1009.6
20260905070052 75 87 0.0 0.0 0.00 0.00 0.00 71 1009.7
20260905064549 75 87 0.0 0.0 0.00 0.00 0.00 71 1009.6
20260905063056 75 87 0.0 0.0 0.00 0.00 0.00 70 1009.7
20260905061550 75 87 0.0 0.0 0.00 0.00 0.00 70 1009.8
20260905060046 76 87 0.0 0.0 0.00 0.00 0.00 71 1009.6
20260905054552 76 87 0.0 0.0 0.00 0.00 0.00 71 1009.7
20260905053045 76 87 0.0 0.0 0.00 0.00 0.00 71 1009.3
20260905051544 75 87 0.0 0.0 0.00 0.00 0.00 71 1009.3
20260905050043 74 86 0.0 0.0 0.00 0.00 0.00 71 1009.3
20260905044542 74 86 0.0 0.0 0.00 0.00 0.00 71 1009.4
20260905043040 75 86 0.0 0.0 0.00 0.00 0.00 71 1009.3
20260905041538 75 86 0.0 0.0 0.00 0.00 0.00 71 1009.3
20260905040047 76 86 0.0 0.0 0.00 0.00 0.00 71 1009.2
20260905034536 76 86 0.0 0.0 0.00 0.00 0.00 71 1009.2
20260905033035 77 86 0.0 0.0 0.00 0.00 0.00 71 1009.2
20260905031535 77 86 0.0 0.0 0.00 0.00 0.00 71 1009.1
20260905030042 77 86 0.0 0.0 0.00 0.00 0.00 71 1009.0
20260905024534 78 87 0.0 0.0 0.00 0.00 0.00 71 1009.3
20260905023034 78 87 0.0 0.0 0.00 0.00 0.00 72 1009.7
20260905021532 79 85 0.0 0.0 0.00 0.00 0.00 72 1009.4
20260905020034 79 85 0.0 0.0 0.00 0.00 0.00 72 1009.0
20260905014533 80 79 0.0 0.0 0.00 0.00 0.00 71 1009.3
20260905013035 80 66 0.0 0.0 0.00 0.00 0.00 71 1009.0
20260905011531 79 58 0.0 0.0 0.00 0.00 0.00 71 1008.8
20260905010041 80 57 0.0 0.0 0.00 0.00 0.00 72 1008.7
20260905004531 80 57 0.0 0.0 0.00 0.00 0.00 72 1008.6
20260905003034 80 57 0.0 0.0 0.00 0.00 0.00 72 1008.2
20260905001529 80 56 0.0 0.0 0.00 0.00 0.00 72 1007.8
20260905000029 80 57 0.0 0.0 0.00 0.00 0.00 72 1007.6
20260904234528 80 57 0.0 0.0 0.00 0.00 0.00 72 1007.6
20260904233029 81 57 0.0 0.0 0.00 0.00 0.00 72 1007.8
20260904231527 81 57 0.0 0.0 0.00 0.00 0.00 73 1007.8
20260904230043 81 56 0.0 0.0 0.00 0.00 0.00 73 1007.9
20260904224530 82 57 0.0 0.0 0.00 0.00 0.00 73 1007.6
20260904223027 82 57 0.0 0.0 0.00 0.00 0.00 74 1007.5
20260904221526 82 57 0.0 0.0 0.00 0.00 0.00 74 1007.3
20260904220028 83 56 0.0 0.0 0.00 0.00 0.00 74 1007.6
20260904214525 84 56 0.0 0.0 0.00 0.00 0.00 75 1007.8
20260904213025 85 56 0.0 0.0 0.00 0.00 0.00 76 1007.7
20260904211524 86 56 1.0 0.0 0.00 0.00 0.00 75 1007.7
20260904210023 86 58 1.0 0.0 0.00 0.00 0.00 74 1007.6
20260904204525 86 55 0.0 0.0 0.00 0.00 0.00 75 1007.7
20260904203019 85 303 0.0 0.0 0.00 0.00 0.00 76 1007.8
20260904201514 84 70 1.0 0.0 0.00 0.00 0.00 76 1007.7
20260904200013 83 57 1.0 0.0 0.00 0.00 0.00 76 1008.0
20260904194510 82 98 0.0 0.0 0.00 0.00 0.00 76 1008.3
20260904193012 81 20 0.0 0.0 0.00 0.00 0.00 75 1008.5
20260904191502 79 40 0.0 0.0 0.00 0.00 0.00 72 1008.9
20260904190059 77 179 0.0 0.0 0.00 0.00 0.00 71 1009.1
20260904184559 75 180 0.0 0.0 0.00 0.00 0.00 71 1009.1
20260904183113 74 178 0.0 0.0 0.00 0.00 0.00 71 1009.1
20260904181557 74 100 0.0 0.0 0.00 0.00 0.00 71 1009.3
20260904180057 73 87 0.0 0.0 0.00 0.00 0.00 72 1008.8
20260904174556 73 95 0.0 0.0 0.00 0.00 0.00 73 1008.8
20260904173059 74 294 0.0 0.0 0.00 0.00 0.00 76 1009.7
20260904171556 75 60 1.0 0.0 0.00 0.00 0.00 76 1010.7
20260904170056 74 218 0.0 0.0 0.00 0.00 0.00 74 1010.3
20260904164556 73 214 0.0 0.0 0.00 0.00 0.00 73 1010.2
20260904163104 72 156 0.0 0.0 0.00 0.00 0.00 72 1010.2
20260904161553 71 192 0.0 0.0 0.00 0.00 0.00 73 1010.3